Simultaneous Nadir Overpasses (SNOs) Predictions

Prediction of SNOs between GOES-14 and NOAA-20 Satellite Orbit:

Table of predicted SNOs for the next 14.0 days since TLE Epoch: 11/9/2024
Index Date Time (GOES-14) GOES-14 Lat,Lon NOAA-20 Lat,Lon Distance(km) Time Diff (sec)
1 11/09/2024 08:44:16 -0.05,-108.61 0.22,-109.81 136.44 80
2 11/10/2024 08:22:51 -0.06,-108.61 -0.79,-105.28 379.73 80
3 11/11/2024 20:47:26 0.05,-108.55 -0.39,-110.58 231.12 80
4 11/12/2024 20:26:01 0.06,-108.55 0.64,-106.05 285.59 80
5 11/14/2024 08:50:26 -0.03,-108.61 0.56,-111.30 306.60 80
6 11/15/2024 08:29:01 -0.04,-108.61 -0.47,-106.77 209.65 80
7 11/16/2024 20:53:34 0.02,-108.53 -0.79,-112.05 401.87 80
8 11/17/2024 20:32:08 0.03,-108.53 0.25,-107.53 114.50 80
9 11/19/2024 08:56:34 -0.01,-108.60 0.92,-112.79 477.48 80
10 11/20/2024 08:35:07 -0.02,-108.59 -0.08,-108.25 38.73 80
11 11/22/2024 20:40:55 0.01,-108.51 -0.09,-109.01 56.13 80
